Weather History for St.-Hubert, QC

Change the Weather History Date:

Thursday, October 4, 2012

  Actual Average Record
Temperature  
Mean Temperature 56 °F -  
Max Temperature 60 °F 54 °F 78 °F (2005)
Min Temperature 52 °F 36 °F 30 °F (1996)
Degree Days  
Heating Degree Days 9    
Growing Degree Days 6 (Base 50)    
Moisture  
Dew Point 55 °F    
Average Humidity 95    
Maximum Humidity 100    
Minimum Humidity 88    
Precipitation  
Precipitation 0.01 in 0.11 in - ()
Sea Level Pressure  
Sea Level Pressure 30.07 in    
Wind  
Wind Speed 5 mph ()    
Max Wind Speed 9 mph    
Max Gust Speed -    
Visibility 3.9 miles    
Events Fog , Rain    
Averages and records for this station are not official NWS values.
T = Trace of Precipitation, MM = Missing Value Source: Averaged Metar Reports

Daily Weather History Graph

Daily Weather History Graph

Search for Another Location

Airport:

Trip Planner

Search our weather history database for the weather conditions in past years. The results will help you decide how hot, cold, wet, or windy it might be!

Date:

Astronomy

Oct. 04, 2012 Rise Set
Actual Time 6:56 AM EDT 6:27 PM EDT
Civil Twilight 6:26 AM EDT 6:56 PM EDT
Nautical Twilight 5:52 AM EDT 7:31 PM EDT
Astronomical Twilight 5:17 AM EDT 8:05 PM EDT
Moon 8:47 PM EDT (10/4) 11:24 AM EDT (10/4)
Length of Visible Light 12h 30m
Length of Day
11h 31m
Waning Gibbous, 82% of the Moon is Illuminated
Oct 4
Waning Gibbous
Oct 8
Last Quarter
Oct 15
New
Oct 21
First Quarter
Oct 29
Full

Hourly Weather History & Observations

Time (EDT) Temp. Dew Point Humidity Pressure Visibility Wind Dir Wind Speed Gust Speed Precip Events Conditions
12:00 AM 60.8 °F 59.0 °F 94% 30.12 in 8.0 mi NE 3.5 mph - N/A   Overcast
12:43 AM 60.8 °F 59.0 °F 94% 30.12 in 9.0 mi North 4.6 mph - N/A   Overcast
1:00 AM 60.8 °F 59.0 °F 94% 30.12 in 7.0 mi NNE 5.8 mph - N/A   Overcast
1:49 AM 60.8 °F 57.2 °F 88% 30.12 in 9.0 mi North 5.8 mph - N/A   Overcast
2:00 AM 60 °F 58 °F 89% 30.11 in 7 mi North 5.8 mph - -   Overcast
2:00 AM 60.8 °F 57.2 °F 88% 30.11 in 7.0 mi NNE 5.8 mph - N/A   Overcast
3:00 AM 59.0 °F 55.4 °F 88% 30.12 in 9.0 mi North 6.9 mph - N/A   Overcast
3:37 AM 59.0 °F 55.4 °F 88% 30.12 in 5.0 mi North 5.8 mph - N/A Rain Light Rain
3:43 AM 57.2 °F 55.4 °F 94% 30.12 in 6.0 mi North 5.8 mph - N/A Rain Light Rain
3:58 AM 57.2 °F 53.6 °F 88% 30.12 in 9.0 mi North 5.8 mph - N/A   Overcast
4:00 AM 57.2 °F 53.6 °F 88% 30.12 in 9.0 mi North 6.9 mph - N/A   Overcast
4:12 AM 55.4 °F 53.6 °F 94% 30.12 in 8.0 mi North 5.8 mph - N/A Rain Light Rain
4:28 AM 55.4 °F 53.6 °F 94% 30.12 in 9.0 mi North 6.9 mph - N/A   Overcast
5:00 AM 55.4 °F 51.8 °F 88% 30.12 in 9.0 mi North 8.1 mph - N/A   Overcast
5:01 AM 55.4 °F 51.8 °F 88% 30.12 in 9.0 mi North 8.1 mph - N/A   Overcast
5:30 AM 55.4 °F 51.8 °F 88% 30.11 in 5.0 mi North 6.9 mph - N/A   Overcast
5:40 AM 53.6 °F 51.8 °F 94% 30.11 in 2.5 mi North 9.2 mph - N/A   Overcast
5:51 AM 53.6 °F 51.8 °F 94% 30.12 in 1.8 mi North 6.9 mph - N/A   Overcast
5:56 AM 53.6 °F 51.8 °F 94% 30.12 in 1.5 mi North 5.8 mph - N/A Rain Light Rain
6:00 AM 53.6 °F 51.8 °F 94% 30.12 in 1.5 mi NNW 6.9 mph - N/A Rain Light Rain
6:05 AM 53.6 °F 51.8 °F 94% 30.12 in 2.0 mi North 5.8 mph - N/A Rain Light Rain
6:10 AM 53.6 °F 51.8 °F 94% 30.12 in 3.0 mi North 6.9 mph - N/A Rain Light Rain
6:16 AM 53.6 °F 51.8 °F 94% 30.12 in 3.0 mi North 6.9 mph - N/A   Overcast
6:19 AM 53.6 °F 51.8 °F 94% 30.12 in 3.0 mi North 6.9 mph - N/A   Overcast
6:41 AM 53.6 °F 51.8 °F 94% 30.12 in 6.0 mi NNW 5.8 mph - N/A   Overcast
7:00 AM 53.6 °F 51.8 °F 94% 30.12 in 6.0 mi NNW 5.8 mph - N/A   Overcast
8:00 AM 53 °F 51 °F 92% 30.11 in 7 mi NNE 5.8 mph - -   Clear
8:00 AM 53.6 °F 51.8 °F 94% 30.11 in 7.0 mi NNE 5.8 mph - N/A   Overcast
8:12 AM 53.6 °F 51.8 °F 94% 30.12 in 5.0 mi North 6.9 mph - N/A   Overcast
8:39 AM 53.6 °F 51.8 °F 94% 30.12 in 2.5 mi North 4.6 mph - N/A   Overcast
8:57 AM 53.6 °F 51.8 °F 94% 30.12 in 1.8 mi North 6.9 mph - N/A   Overcast
9:00 AM 53.6 °F 51.8 °F 94% 30.12 in 1.8 mi North 6.9 mph - N/A   Overcast
9:19 AM 53.6 °F 51.8 °F 94% 30.12 in 2.0 mi NNW 4.6 mph - N/A   Overcast
9:27 AM 53.6 °F 51.8 °F 94% 30.12 in 1.8 mi North 5.8 mph - N/A   Overcast
10:00 AM 53.6 °F 51.8 °F 94% 30.11 in 1.5 mi North 6.9 mph - N/A   Overcast
10:46 AM 53.6 °F 53.6 °F 100% 30.11 in 2.0 mi North 4.6 mph - N/A   Overcast
10:55 AM 53.6 °F 53.6 °F 100% 30.10 in 1.8 mi NE 3.5 mph - N/A   Overcast
11:00 AM 53.6 °F 53.6 °F 100% 30.10 in 1.5 mi NNE 3.5 mph - N/A   Overcast
11:11 AM 53.6 °F 53.6 °F 100% 30.10 in 2.0 mi North 4.6 mph - N/A   Overcast
11:36 AM 53.6 °F 53.6 °F 100% 30.11 in 1.8 mi NW 4.6 mph - N/A   Overcast
11:47 AM 53.6 °F 53.6 °F 100% 30.10 in 2.0 mi North 2.3 mph - N/A   Overcast
12:00 PM 55.4 °F 53.6 °F 94% 30.09 in 3.0 mi NNE 3.5 mph - N/A   Overcast
1:00 PM 55.4 °F 53.6 °F 94% 30.08 in 5.0 mi Variable 2.3 mph - N/A   Overcast
1:38 PM 55.4 °F 53.6 °F 94% 30.07 in 2.5 mi ENE 3.5 mph - N/A   Overcast
2:00 PM 56 °F 54 °F 93% 30.07 in 2 mi North 2.3 mph - - Rain Light Rain
2:00 PM 55.4 °F 55.4 °F 100% 30.07 in 2.0 mi North 2.3 mph - N/A Rain Light Rain
2:01 PM 55.4 °F 55.4 °F 100% 30.07 in 1.8 mi North 2.3 mph - N/A Rain Light Rain
2:04 PM 55.4 °F 55.4 °F 100% 30.06 in 2.0 mi Calm Calm - N/A Rain Light Rain
2:08 PM 57.2 °F 55.4 °F 94% 30.07 in 3.0 mi Calm Calm - N/A Rain Light Rain
2:16 PM 57.2 °F 55.4 °F 94% 30.06 in 4.0 mi Calm Calm - N/A   Overcast
3:00 PM 57.2 °F 55.4 °F 94% 30.04 in 5.0 mi ENE 3.5 mph - N/A   Overcast
3:14 PM 57.2 °F 55.4 °F 94% 30.04 in 5.0 mi East 3.5 mph - N/A Rain Light Rain
3:25 PM 57.2 °F 55.4 °F 94% 30.03 in 5.0 mi Variable 2.3 mph - N/A Rain Light Rain
3:40 PM 57.2 °F 55.4 °F 94% 30.04 in 5.0 mi Calm Calm - N/A   Overcast
3:50 PM 57.2 °F 55.4 °F 94% 30.03 in 5.0 mi Calm Calm - N/A   Overcast
4:00 PM 59.0 °F 55.4 °F 88% 30.04 in 5.0 mi Calm Calm - N/A   Overcast
4:03 PM 59.0 °F 55.4 °F 88% 30.04 in 5.0 mi Calm Calm - N/A   Overcast
4:12 PM 59.0 °F 55.4 °F 88% 30.03 in 5.0 mi Variable 2.3 mph - N/A   Overcast
4:17 PM 59.0 °F 57.2 °F 94% 30.03 in 5.0 mi Variable 2.3 mph - N/A   Overcast
4:29 PM 59.0 °F 57.2 °F 94% 30.02 in 5.0 mi Variable 2.3 mph - N/A   Overcast
4:36 PM 59.0 °F 57.2 °F 94% 30.02 in 5.0 mi East 2.3 mph - N/A   Overcast
5:00 PM 59.0 °F 57.2 °F 94% 30.01 in 5.0 mi Calm Calm - N/A   Overcast
6:00 PM 60.8 °F 59.0 °F 94% 29.99 in 3.0 mi South 3.5 mph - N/A   Overcast
6:11 PM 60.8 °F 59.0 °F 94% 29.99 in 3.0 mi South 3.5 mph - N/A   Overcast
6:22 PM 59.0 °F 59.0 °F 100% 29.99 in 2.5 mi South 3.5 mph - N/A   Overcast
6:36 PM 59.0 °F 59.0 °F 100% 29.99 in 1.8 mi South 4.6 mph - N/A   Overcast
7:00 PM 59.0 °F 59.0 °F 100% 29.99 in 1.0 mi South 3.5 mph - N/A   Overcast
7:26 PM 59.0 °F 57.2 °F 94% 29.99 in 0.4 mi South 4.6 mph - N/A Fog Fog
8:00 PM 58 °F 57 °F 94% 29.99 in 0 mi SE 4.6 mph - - Fog Fog
8:00 PM 57.2 °F 57.2 °F 100% 29.99 in 0.2 mi SE 3.5 mph - N/A Fog Fog
10:00 PM 57.2 °F 57.2 °F 100% 29.98 in 0.1 mi South 4.6 mph - N/A Fog Fog
10:27 PM 57.2 °F 57.2 °F 100% 29.97 in 0.5 mi SSE 3.5 mph - N/A Fog Fog
10:45 PM 57.2 °F 55.4 °F 94% 29.97 in 0.4 mi SSE 3.5 mph - N/A Fog Fog
11:00 PM 55.4 °F 55.4 °F 100% 29.96 in 0.5 mi SSE 4.6 mph - N/A Fog Fog
11:04 PM 55.4 °F 55.4 °F 100% 29.96 in 0.8 mi SSE 4.6 mph - N/A   Mostly Cloudy
11:12 PM 55.4 °F 55.4 °F 100% 29.95 in 2.0 mi South 4.6 mph - N/A   Mostly Cloudy
11:14 PM 55.4 °F 55.4 °F 100% 29.95 in 3.0 mi SSE 4.6 mph - N/A   Mostly Cloudy
11:30 PM 55.4 °F 55.4 °F 100% 29.95 in 6.0 mi SSE 6.9 mph - N/A   Mostly Cloudy